Regional Weather Roundup
Issued by NWS

Home | Current Version | Previous Version | Text Only | Print | Product List | Glossary On
Versions: 1 2 3 4 5 6 7 8 9 10 11 12 13 14 15 16 17 18 19 20 21 22 23 24 25 26 27 28 29 30 31 32 33 34 35 36 37 38 39 40 41 42 43 44 45 46 47 48 49 50
283
ASUS46 KPQR 112310
RWROR

OREGON REGIONAL WEATHER ROUNDUP
NATIONAL WEATHER SERVICE PORTLAND OR
300 PM PST THU FEB 11 2016

NOTE: "FAIR" INDICATES FEW OR NO CLOUDS BELOW 12,000 FEET WITH
NO SIGNIFICANT WEATHER AND/OR OBSTRUCTIONS TO VISIBILITY.

ORZ001>013-120000-
NORTHWEST OREGON


CITY           SKY/WX    TMP DP  RH WIND       PRES   REMARKS
ASTORIA        RAIN      55  52  89 VRB6      30.07R FOG
NEWPORT        CLOUDY    55  55 100 E5        30.10F
PORTLAND       CLOUDY    54  46  74 SE10      30.13R
VANCOUVER WA   LGT RAIN  53  47  79 S5        30.13R
SCAPPOOSE      LGT RAIN  54  52  93 CALM      30.12R
HILLSBORO      RAIN      52  51  97 CALM      30.12R FOG
AURORA         LGT RAIN  54  51  90 NE3       30.12S FOG
MCMINNVILLE    RAIN      54  52  93 N3        30.13F FOG
SALEM          CLOUDY    55  52  89 NE8       30.10F
CORVALLIS      CLOUDY    55  52  88 NE5       30.11R
EUGENE         CLOUDY    58  52  80 N6        30.10S
$$

ORZ021-028-120000-
SOUTHWEST OREGON


CITY           SKY/WX    TMP DP  RH WIND       PRES   REMARKS
NORTH BEND     PTSUNNY   61  54  77 W6        30.09F
BROOKINGS      MOSUNNY   62  46  55 SE7       30.11S
ROSEBURG       MOSUNNY   65  50  58 NW6       30.07F
SEXTON SUMMIT  SUNNY     59  39  47 S6        30.13S
MEDFORD        SUNNY     66  41  40 NW3       30.08F
$$

ORZ014>016-041-120000-
COLUMBIA GORGE


CITY           SKY/WX    TMP DP  RH WIND       PRES   REMARKS
TROUTDALE      LGT RAIN  53  45  74 E22G30    30.11F
THE DALLES     CLOUDY    50  45  83 W3        30.24F
$$

ORZ029>031-041-044-049-050-061>064-502-503-505>511-120000-
EASTERN OREGON


CITY           SKY/WX    TMP DP  RH WIND       PRES   REMARKS
REDMOND        CLOUDY    55  39  54 N5        30.16F
BEND           PTSUNNY   55  37  50 NE5       30.15F
PRINEVILLE     CLOUDY    55  39  54 VRB6      30.16F
KLAMATH FALLS  SUNNY     61  36  39 NW5       30.17F
LAKEVIEW       MOSUNNY   55  30  38 CALM      30.23S
HERMISTON      CLOUDY    51  41  68 E5        30.24F
PENDLETON      LGT RAIN  45  42  89 NW7       30.22F
JOHN DAY       PTSUNNY   58  36  43 E3        30.19S
MEACHAM        LGT RAIN  41  35  79 CALM      30.20F
LA GRANDE      CLOUDY    46  30  53 S17G28    30.24F
BAKER CITY     CLOUDY    41  34  76 S5        30.29F
BURNS          MOSUNNY   36  30  79 S5        30.25S WCI  32
ROME             N/A     46  37  71 NE7       30.25S
ONTARIO        CLOUDY    44  33  65 CALM      30.36F
$$




USA.gov is the U.S. government's official web portal to all federal, state and local government web resources and services.